EW6167 Weather Reports


Display with metric or nautical units.
time (UTC)temp
F
wind
direction
speed
MPH
gust
MPH
rain 1hr
in
rain 24hr
in
rain mn
in
humidity
%
barometer
mb
20260905083602 53 13 2.0 0.0 0.00 0.00 0.00 63 1006.1
20260905083110 53 53 3.0 0.0 0.00 0.00 0.00 63 1006.2
20260905082603 54 27 5.0 0.0 0.00 0.00 0.00 63 1006.0
20260905082003 54 28 7.0 0.0 0.00 0.00 0.00 62 1005.7
20260905081605 54 36 6.0 0.0 0.00 0.00 0.00 62 1005.9
20260905081001 54 60 5.0 0.0 0.00 0.00 0.00 60 1006.3
20260905080557 54 44 6.0 0.0 0.00 0.00 0.00 60 1006.1
20260905080053 53 82 6.0 0.0 0.00 0.00 0.00 59 1006.1
20260905075554 53 47 5.0 0.0 0.00 0.00 0.00 57 1005.6
20260905075054 53 63 3.0 0.0 0.00 0.00 0.00 58 1005.7
20260905074549 52 42 2.0 0.0 0.00 0.00 0.00 57 1005.9
20260905074050 52 42 2.0 0.0 0.00 0.00 0.00 57 1005.5
20260905073550 52 42 2.0 0.0 0.00 0.00 0.00 56 1005.4
20260905073043 52 42 3.0 0.0 0.00 0.00 0.00 56 1005.2
20260905072543 52 34 4.0 0.0 0.00 0.00 0.00 56 1004.9
20260905072051 52 55 4.0 0.0 0.00 0.00 0.00 57 1005.0
20260905071551 52 84 5.0 0.0 0.00 0.00 0.00 55 1005.0
20260905071052 53 355 4.0 0.0 0.00 0.00 0.00 54 1004.9
20260905070558 53 355 6.0 0.0 0.00 0.00 0.00 54 1004.7
20260905070059 53 355 7.0 0.0 0.00 0.00 0.00 53 1004.7
20260905065603 53 323 6.0 0.0 0.00 0.00 0.00 55 1004.8
20260905065002 53 308 5.0 0.0 0.00 0.00 0.00 56 1004.4
20260905064607 52 259 5.0 0.0 0.00 0.00 0.00 56 1004.1
20260905064104 53 286 3.0 0.0 0.00 0.00 0.00 56 1004.1
20260905063553 53 286 3.0 0.0 0.00 0.00 0.00 53 1003.9
20260905063056 53 286 3.0 0.0 0.00 0.00 0.00 53 1003.7
20260905062549 53 286 4.0 0.0 0.00 0.00 0.00 54 1003.6
20260905062050 54 286 4.0 0.0 0.00 0.00 0.00 53 1003.7
20260905061607 54 339 4.0 0.0 0.00 0.00 0.00 52 1003.8
20260905061004 54 339 3.0 0.0 0.00 0.00 0.00 52 1003.8
20260905060609 55 339 3.0 0.0 0.00 0.00 0.00 52 1003.8
20260905060101 55 227 2.0 0.0 0.00 0.00 0.00 49 1003.7
20260905055557 55 202 3.0 0.0 0.00 0.00 0.00 49 1003.9
20260905055104 56 203 5.0 0.0 0.00 0.00 0.00 48 1003.7
20260905054557 57 196 6.0 0.0 0.00 0.00 0.00 46 1003.7
20260905054105 57 155 6.0 0.0 0.00 0.00 0.00 46 1003.6
20260905053502 57 133 6.0 0.0 0.00 0.00 0.00 46 1003.5
20260905053002 57 152 6.0 0.0 0.00 0.00 0.00 46 1003.7
20260905052602 57 143 7.0 0.0 0.00 0.00 0.00 45 1003.8
20260905052011 57 157 7.0 0.0 0.00 0.00 0.00 45 1003.7
20260905051510 57 145 7.0 0.0 0.00 0.00 0.00 45 1003.8
20260905051011 57 165 7.0 0.0 0.00 0.00 0.00 45 1003.8
20260905050525 58 148 8.0 0.0 0.00 0.00 0.00 44 1003.8
20260905050032 59 168 8.0 0.0 0.00 0.00 0.00 43 1004.0
20260905045530 59 169 8.0 0.0 0.00 0.00 0.00 42 1004.1
20260905045037 60 191 9.0 0.0 0.00 0.00 0.00 42 1004.2
20260905044531 59 175 9.0 0.0 0.00 0.00 0.00 42 1004.3
20260905044037 59 181 9.0 0.0 0.00 0.00 0.00 42 1004.6
20260905043532 59 159 8.0 0.0 0.00 0.00 0.00 42 1004.4
20260905043049 60 163 9.0 0.0 0.00 0.00 0.00 42 1004.5
20260905042530 59 159 10.0 0.0 0.00 0.00 0.00 42 1004.6
20260905042039 59 188 9.0 0.0 0.00 0.00 0.00 42 1004.8
20260905041538 59 193 9.0 0.0 0.00 0.00 0.00 42 1004.8
20260905041036 59 182 9.0 0.0 0.00 0.00 0.00 42 1004.8
20260905040542 59 170 9.0 0.0 0.00 0.00 0.00 42 1004.8
20260905040055 59 180 9.0 0.0 0.00 0.00 0.00 42 1004.9
20260905035549 59 190 7.0 0.0 0.00 0.00 0.00 42 1005.0
20260905035047 59 198 7.0 0.0 0.00 0.00 0.00 42 1005.0
20260905034604 60 199 8.0 0.0 0.00 0.00 0.00 41 1005.0
20260905034006 60 175 8.0 0.0 0.00 0.00 0.00 41 1005.2
20260905033514 60 186 8.0 0.0 0.00 0.00 0.00 41 1005.2
20260905033030 59 192 8.0 0.0 0.00 0.00 0.00 42 1005.1
20260905032532 58 159 7.0 0.0 0.00 0.00 0.00 43 1005.2
20260905032031 58 176 6.0 0.0 0.00 0.00 0.00 43 1005.2
20260905031535 57 177 5.0 0.0 0.00 0.00 0.00 43 1005.2
20260905031039 57 183 5.0 0.0 0.00 0.00 0.00 43 1005.0
20260905030554 57 188 5.0 0.0 0.00 0.00 0.00 43 1005.1
20260905030006 57 194 5.0 0.0 0.00 0.00 0.00 43 1005.2
20260905025502 57 192 4.0 0.0 0.00 0.00 0.00 42 1005.1
20260905025002 57 179 4.0 0.0 0.00 0.00 0.00 42 1005.1
20260905024606 58 178 4.0 0.0 0.00 0.00 0.00 42 1005.0
20260905024002 59 190 4.0 0.0 0.00 0.00 0.00 40 1004.9
20260905023605 59 198 5.0 0.0 0.00 0.00 0.00 40 1004.9
20260905023104 60 195 5.0 0.0 0.00 0.00 0.00 39 1004.8
20260905022601 60 188 6.0 0.0 0.00 0.00 0.00 39 1004.8
20260905022011 60 192 5.0 0.0 0.00 0.00 0.00 39 1004.7
20260905021527 60 196 5.0 0.0 0.00 0.00 0.00 38 1004.7
20260905021027 62 176 4.0 0.0 0.00 0.00 0.00 36 1004.6
20260905020537 63 142 3.0 0.0 0.00 0.00 0.00 35 1004.6
20260905020103 64 176 4.0 0.0 0.00 0.00 0.00 33 1004.5
20260905015549 65 176 5.0 0.0 0.00 0.00 0.00 33 1004.4
20260905015050 66 171 5.0 0.0 0.00 0.00 0.00 32 1004.3
20260905014600 67 163 6.0 0.0 0.00 0.00 0.00 31 1004.4
20260905014057 68 168 7.0 0.0 0.00 0.00 0.00 30 1004.3
20260905013558 69 173 8.0 0.0 0.00 0.00 0.00 29 1004.4
20260905013109 69 175 8.0 0.0 0.00 0.00 0.00 29 1004.2
20260905012556 70 169 7.0 0.0 0.00 0.00 0.00 28 1004.2
20260905012102 70 178 8.0 0.0 0.00 0.00 0.00 28 1004.2
20260905011628 71 157 8.0 0.0 0.00 0.00 0.00 28 1004.1
20260905011052 71 192 8.0 0.0 0.00 0.00 0.00 27 1004.0
20260905010506 71 170 10.0 0.0 0.00 0.00 0.00 27 1004.0
20260905010001 72 188 10.0 0.0 0.00 0.00 0.00 26 1004.0
20260905005503 72 192 10.0 0.0 0.00 0.00 0.00 26 1004.0
20260905005105 72 195 10.0 0.0 0.00 0.00 0.00 26 1003.9
20260905004600 72 169 12.0 0.0 0.00 0.00 0.00 26 1003.9
20260905004102 72 161 12.0 0.0 0.00 0.00 0.00 26 1003.8
20260905003501 72 161 11.0 0.0 0.00 0.00 0.00 26 1003.8
20260905003010 73 167 12.0 0.0 0.00 0.00 0.00 25 1003.7
20260905002513 73 171 12.0 0.0 0.00 0.00 0.00 25 1003.8
20260905002022 73 189 12.0 0.0 0.00 0.00 0.00 25 1003.8
20260905001547 73 142 13.0 0.0 0.00 0.00 0.00 25 1003.7
20260905001040 73 195 14.0 0.0 0.00 0.00 0.00 24 1003.7
20260905000544 73 140 13.0 0.0 0.00 0.00 0.00 24 1003.6
20260905000050 73 137 13.0 0.0 0.00 0.00 0.00 24 1003.6
20260904235504 73 115 13.0 0.0 0.00 0.00 0.00 24 1003.6
20260904235059 74 161 13.0 0.0 0.00 0.00 0.00 24 1003.6
20260904234555 74 227 12.0 0.0 0.00 0.00 0.00 24 1003.6
20260904234052 74 182 12.0 0.0 0.00 0.00 0.00 24 1003.6
20260904233557 73 173 13.0 0.0 0.00 0.00 0.00 24 1003.5
20260904233105 73 177 13.0 0.0 0.00 0.00 0.00 24 1003.6
20260904232503 73 173 12.0 0.0 0.00 0.00 0.00 24 1003.6
20260904232012 73 184 13.0 0.0 0.00 0.00 0.00 24 1003.7
20260904231521 74 193 14.0 0.0 0.00 0.00 0.00 23 1003.6
20260904231030 74 229 15.0 0.0 0.00 0.00 0.00 23 1003.6
20260904230534 74 194 16.0 0.0 0.00 0.00 0.00 24 1003.7
20260904230039 74 167 16.0 0.0 0.00 0.00 0.00 24 1003.6
20260904225554 74 182 17.0 0.0 0.00 0.00 0.00 24 1003.6
20260904225003 74 187 17.0 0.0 0.00 0.00 0.00 23 1003.6
20260904224523 74 196 16.0 0.0 0.00 0.00 0.00 24 1003.7
20260904224042 74 209 16.0 0.0 0.00 0.00 0.00 23 1003.7
20260904223551 73 171 17.0 0.0 0.00 0.00 0.00 24 1003.7
20260904223100 73 190 18.0 0.0 0.00 0.00 0.00 23 1003.8
20260904222514 73 168 17.0 0.0 0.00 0.00 0.00 24 1003.6
20260904222032 73 190 19.0 0.0 0.00 0.00 0.00 24 1003.7
20260904221540 73 163 21.0 0.0 0.00 0.00 0.00 24 1003.7
20260904221058 73 165 21.0 0.0 0.00 0.00 0.00 24 1003.7
20260904220515 74 148 18.0 0.0 0.00 0.00 0.00 24 1003.7
20260904220031 73 117 17.0 0.0 0.00 0.00 0.00 25 1003.6
20260904215551 73 211 17.0 0.0 0.00 0.00 0.00 25 1003.5
20260904215105 74 172 18.0 0.0 0.00 0.00 0.00 24 1003.6
20260904214508 73 148 18.0 0.0 0.00 0.00 0.00 24 1003.6
20260904214017 74 188 18.0 0.0 0.00 0.00 0.00 25 1003.6
20260904213539 73 178 21.0 0.0 0.00 0.00 0.00 25 1003.6
20260904213054 73 145 21.0 0.0 0.00 0.00 0.00 25 1003.6
20260904212545 74 154 20.0 0.0 0.00 0.00 0.00 24 1003.6
20260904212038 74 155 19.0 0.0 0.00 0.00 0.00 25 1003.7
20260904211549 73 178 19.0 0.0 0.00 0.00 0.00 25 1003.6
20260904211052 74 178 20.0 0.0 0.00 0.00 0.00 25 1003.5
20260904210603 74 129 20.0 0.0 0.00 0.00 0.00 25 1003.4
20260904210015 72 169 19.0 0.0 0.00 0.00 0.00 27 1003.4
20260904205532 73 169 19.0 0.0 0.00 0.00 0.00 26 1003.5
20260904205033 71 159 18.0 0.0 0.00 0.00 0.00 28 1003.4
20260904204541 72 174 17.0 0.0 0.00 0.00 0.00 27 1003.5
20260904204048 73 173 17.0 0.0 0.00 0.00 0.00 27 1003.5
20260904203549 72 175 17.0 0.0 0.00 0.00 0.00 28 1003.5
20260904203054 72 192 17.0 0.0 0.00 0.00 0.00 27 1003.5
20260904202555 73 181 19.0 0.0 0.00 0.00 0.00 27 1003.6
20260904202053 72 163 20.0 0.0 0.00 0.00 0.00 27 1003.6
20260904201603 72 152 19.0 0.0 0.00 0.00 0.00 27 1003.5
20260904201107 73 180 20.0 0.0 0.00 0.00 0.00 26 1003.4
20260904200514 72 181 19.0 0.0 0.00 0.00 0.00 27 1003.4
20260904200023 73 135 19.0 0.0 0.00 0.00 0.00 26 1003.6
20260904195526 73 162 19.0 0.0 0.00 0.00 0.00 27 1003.4
20260904195035 72 184 20.0 0.0 0.00 0.00 0.00 27 1003.4
20260904194605 72 189 18.0 0.0 0.00 0.00 0.00 27 1003.5
20260904194058 72 169 17.0 0.0 0.00 0.00 0.00 27 1003.5
20260904193600 72 128 17.0 0.0 0.00 0.00 0.00 28 1003.4
20260904193004 71 159 19.0 0.0 0.00 0.00 0.00 28 1003.7
20260904192520 72 142 20.0 0.0 0.00 0.00 0.00 28 1003.7
20260904192030 72 151 22.0 0.0 0.00 0.00 0.00 27 1003.6
20260904191540 72 158 21.0 0.0 0.00 0.00 0.00 27 1003.6
20260904191041 72 181 20.0 0.0 0.00 0.00 0.00 26 1003.6
20260904190544 71 166 21.0 0.0 0.00 0.00 0.00 26 1003.6
20260904190050 72 168 21.0 0.0 0.00 0.00 0.00 26 1003.5
20260904185553 72 177 21.0 0.0 0.00 0.00 0.00 26 1003.5
20260904185054 72 171 21.0 0.0 0.00 0.00 0.00 26 1003.4
20260904184602 71 150 20.0 0.0 0.00 0.00 0.00 25 1003.3
20260904184018 71 180 21.0 0.0 0.00 0.00 0.00 26 1003.3
20260904183527 71 175 21.0 0.0 0.00 0.00 0.00 25 1003.4
20260904183028 71 213 20.0 0.0 0.00 0.00 0.00 25 1003.3
20260904182538 71 171 21.0 0.0 0.00 0.00 0.00 25 1003.3
20260904182050 71 194 21.0 0.0 0.00 0.00 0.00 25 1003.3
20260904181605 71 143 21.0 0.0 0.00 0.00 0.00 25 1003.3
20260904181103 71 148 22.0 0.0 0.00 0.00 0.00 25 1003.4
20260904180603 71 121 22.0 0.0 0.00 0.00 0.00 25 1003.2
20260904180008 71 180 21.0 0.0 0.00 0.00 0.00 25 1003.2
20260904175515 71 168 21.0 0.0 0.00 0.00 0.00 25 1003.2
20260904175016 71 173 20.0 0.0 0.00 0.00 0.00 26 1003.1
20260904174518 71 149 20.0 0.0 0.00 0.00 0.00 25 1003.2
20260904174030 71 182 19.0 0.0 0.00 0.00 0.00 26 1003.2
20260904173542 71 152 19.0 0.0 0.00 0.00 0.00 26 1003.2
20260904173042 71 173 17.0 0.0 0.00 0.00 0.00 27 1003.2
20260904172552 71 180 16.0 0.0 0.00 0.00 0.00 27 1003.3
20260904172055 71 184 15.0 0.0 0.00 0.00 0.00 27 1003.5
20260904171604 70 176 16.0 0.0 0.00 0.00 0.00 28 1003.4
20260904171100 70 173 16.0 0.0 0.00 0.00 0.00 27 1003.6
20260904170501 70 130 16.0 0.0 0.00 0.00 0.00 28 1003.6
20260904170004 70 190 17.0 0.0 0.00 0.00 0.00 28 1003.4
20260904165610 70 190 17.0 0.0 0.00 0.00 0.00 27 1003.5
20260904165101 70 173 17.0 0.0 0.00 0.00 0.00 27 1003.5
20260904164503 70 138 16.0 0.0 0.00 0.00 0.00 28 1003.6
20260904164023 69 146 17.0 0.0 0.00 0.00 0.00 28 1003.4
20260904163546 69 184 16.0 0.0 0.00 0.00 0.00 28 1003.2
20260904163057 68 125 16.0 0.0 0.00 0.00 0.00 29 1003.4
20260904162511 68 180 16.0 0.0 0.00 0.00 0.00 29 1003.4
20260904162020 68 140 16.0 0.0 0.00 0.00 0.00 30 1003.3
20260904161534 67 147 16.0 0.0 0.00 0.00 0.00 30 1003.3
20260904161043 68 148 16.0 0.0 0.00 0.00 0.00 29 1003.3
20260904160553 67 195 16.0 0.0 0.00 0.00 0.00 30 1003.2
20260904160057 67 128 15.0 0.0 0.00 0.00 0.00 30 1003.4
20260904155518 67 122 15.0 0.0 0.00 0.00 0.00 30 1003.3
20260904155030 67 141 16.0 0.0 0.00 0.00 0.00 30 1003.1
20260904154547 67 119 19.0 0.0 0.00 0.00 0.00 29 1003.2
20260904154059 67 161 19.0 0.0 0.00 0.00 0.00 30 1003.0
20260904153518 66 128 19.0 0.0 0.00 0.00 0.00 30 1003.0
20260904153035 66 132 20.0 0.0 0.00 0.00 0.00 29 1002.9
20260904152542 66 133 20.0 0.0 0.00 0.00 0.00 30 1002.6
20260904152054 66 123 19.0 0.0 0.00 0.00 0.00 30 1002.7
20260904151605 66 124 20.0 0.0 0.00 0.00 0.00 30 1002.7
20260904151023 66 150 20.0 0.0 0.00 0.00 0.00 29 1002.6
20260904150544 66 154 20.0 0.0 0.00 0.00 0.00 29 1002.7
20260904150052 66 123 20.0 0.0 0.00 0.00 0.00 29 1002.7
20260904145509 66 148 20.0 0.0 0.00 0.00 0.00 29 1002.7
20260904145029 66 119 19.0 0.0 0.00 0.00 0.00 29 1002.5
20260904144544 65 136 20.0 0.0 0.00 0.00 0.00 28 1002.5
20260904144013 65 179 20.0 0.0 0.00 0.00 0.00 28 1002.5
20260904143521 65 172 19.0 0.0 0.00 0.00 0.00 28 1002.5
20260904143037 65 146 18.0 0.0 0.00 0.00 0.00 28 1002.4
20260904142540 65 146 18.0 0.0 0.00 0.00 0.00 28 1002.5
20260904142049 65 135 16.0 0.0 0.00 0.00 0.00 27 1002.4
20260904141508 65 149 14.0 0.0 0.00 0.00 0.00 27 1002.3
20260904141021 65 167 15.0 0.0 0.00 0.00 0.00 27 1002.3
20260904140543 65 142 16.0 0.0 0.00 0.00 0.00 27 1002.3
20260904140053 65 157 16.0 0.0 0.00 0.00 0.00 27 1002.1
20260904135607 65 146 16.0 0.0 0.00 0.00 0.00 27 1002.3
20260904135008 64 153 17.0 0.0 0.00 0.00 0.00 27 1002.3
20260904134513 64 157 18.0 0.0 0.00 0.00 0.00 27 1002.1
20260904134023 64 146 17.0 0.0 0.00 0.00 0.00 27 1002.0
20260904133531 64 144 17.0 0.0 0.00 0.00 0.00 27 1001.9
20260904133041 64 165 17.0 0.0 0.00 0.00 0.00 27 1001.9
20260904132552 64 140 16.0 0.0 0.00 0.00 0.00 27 1002.0
20260904132006 64 142 16.0 0.0 0.00 0.00 0.00 26 1001.8
20260904131523 64 153 17.0 0.0 0.00 0.00 0.00 26 1001.7
20260904131039 64 163 16.0 0.0 0.00 0.00 0.00 27 1001.5
20260904130547 64 163 16.0 0.0 0.00 0.00 0.00 27 1001.3
20260904130103 64 122 16.0 0.0 0.00 0.00 0.00 27 1001.3
20260904125508 64 131 16.0 0.0 0.00 0.00 0.00 27 1001.2
20260904125022 64 133 16.0 0.0 0.00 0.00 0.00 27 1001.1
20260904124540 64 146 15.0 0.0 0.00 0.00 0.00 27 1001.2
20260904124058 64 149 15.0 0.0 0.00 0.00 0.00 27 1000.9
20260904123601 64 132 13.0 0.0 0.00 0.00 0.00 27 1001.0
20260904123030 64 150 13.0 0.0 0.00 0.00 0.00 28 1001.0
20260904122534 64 150 13.0 0.0 0.00 0.00 0.00 28 1000.8
20260904122040 63 146 12.0 0.0 0.00 0.00 0.00 29 1000.8
20260904121558 63 164 11.0 0.0 0.00 0.00 0.00 29 1000.9
20260904121003 62 163 10.0 0.0 0.00 0.00 0.00 30 1000.6
20260904120518 61 167 10.0 0.0 0.00 0.00 0.00 32 1000.5
20260904120045 60 153 10.0 0.0 0.00 0.00 0.00 33 1000.5
20260904115539 58 143 9.0 0.0 0.00 0.00 0.00 35 1000.2
20260904115055 56 173 8.0 0.0 0.00 0.00 0.00 37 1000.2
20260904114505 56 169 9.0 0.0 0.00 0.00 0.00 39 1000.2
20260904114028 56 149 10.0 0.0 0.00 0.00 0.00 39 1000.1
20260904113549 56 161 10.0 0.0 0.00 0.00 0.00 40 1000.2
20260904113059 55 189 9.0 0.0 0.00 0.00 0.00 41 1000.1
20260904112522 55 164 9.0 0.0 0.00 0.00 0.00 40 999.9
20260904112033 56 185 9.0 0.0 0.00 0.00 0.00 40 1000.0
20260904111555 55 184 8.0 0.0 0.00 0.00 0.00 40 1000.0
20260904111055 55 175 7.0 0.0 0.00 0.00 0.00 40 1000.0
20260904110511 56 178 6.0 0.0 0.00 0.00 0.00 39 1000.0
20260904110028 57 180 7.0 0.0 0.00 0.00 0.00 37 1000.1
20260904105541 57 148 8.0 0.0 0.00 0.00 0.00 37 1000.2
20260904105105 58 165 7.0 0.0 0.00 0.00 0.00 36 1000.2
20260904104535 58 178 7.0 0.0 0.00 0.00 0.00 36 1000.2
20260904104037 58 164 7.0 0.0 0.00 0.00 0.00 35 1000.2
20260904103546 58 162 8.0 0.0 0.00 0.00 0.00 35 1000.1
20260904103057 58 173 8.0 0.0 0.00 0.00 0.00 35 1000.1
20260904102511 57 158 8.0 0.0 0.00 0.00 0.00 36 1000.2
20260904102037 57 169 8.0 0.0 0.00 0.00 0.00 35 1000.0
20260904101550 57 166 8.0 0.0 0.00 0.00 0.00 35 1000.0
20260904101101 57 169 8.0 0.0 0.00 0.00 0.00 36 1000.0
20260904100521 56 165 9.0 0.0 0.00 0.00 0.00 36 999.8
20260904100039 56 167 8.0 0.0 0.00 0.00 0.00 37 999.8
20260904095547 55 171 7.0 0.0 0.00 0.00 0.00 37 999.8
20260904095013 55 177 8.0 0.0 0.00 0.00 0.00 38 999.9
20260904094529 55 190 8.0 0.0 0.00 0.00 0.00 38 999.8
20260904094035 55 173 8.0 0.0 0.00 0.00 0.00 38 999.9
20260904093547 56 187 9.0 0.0 0.00 0.00 0.00 37 999.9
20260904093004 57 183 11.0 0.0 0.00 0.00 0.00 36 999.8
20260904092525 57 178 12.0 0.0 0.00 0.00 0.00 36 999.8
20260904092042 57 184 13.0 0.0 0.00 0.00 0.00 36 999.8
20260904091555 57 176 14.0 0.0 0.00 0.00 0.00 36 999.8
20260904091017 58 175 14.0 0.0 0.00 0.00 0.00 35 999.6
20260904090528 58 186 14.0 0.0 0.00 0.00 0.00 35 999.5
20260904090038 58 195 15.0 0.0 0.00 0.00 0.00 34 999.4
20260904085552 58 167 16.0 0.0 0.00 0.00 0.00 33 999.4
20260904085047 58 174 16.0 0.0 0.00 0.00 0.00 34 999.3
20260904084549 58 190 15.0 0.0 0.00 0.00 0.00 34 999.4
20260904084048 58 187 14.0 0.0 0.00 0.00 0.00 34 999.3